sat.trackr.live / text

‹ back to catalog

STARLINK-30753

NORAD 58175 · 2023-167A

PAYLOAD ACTIVE UNKNOWN

§ Identity

Operator
Country
US
Launch date
2023-10-30
Launch site
AFETR
Launch vehicle
Mass (kg)
RCS (m²)

Purposes: comms

External: N2YO · Heavens-Above · Gunter

§ Orbital elements

Epoch: 2026-09-19T08:42:01.419552Z

Period
94.27 min
Inclination
43.0090°
Eccentricity
0.0002417
Mean motion
15.27575000 rev/d
Perigee alt
481.4 km
Apogee alt
484.7 km
Semi-major
6,861.2 km
B*
6.0117e-5
RAAN
129.7477°
Arg perigee
251.4017°
Mean anomaly
108.6572°
Rev number
16,060

§ Raw data

STARLINK-307531 58175U 23167A   26262.36251643  .00001392  00000+0  60117-4 0  99962 58175  43.0090 129.7477 0002417 251.4017 108.6572 15.27575000160609

JSON: /api/v1/satellites/58175 · /tle

For live sub-satellite position, see the globe view (requires WebGL).

§ Visibility from observer

Set your observer location to see the next 7 days of passes ≥ 10°. The values pass through the URL so the page stays shareable.

No JS? Fill the form by hand. The geolocation button needs JavaScript.